Location: Althorst
(53.6379°N, 10.7715°E)
Time: 23:01:27
(UTC+00:00)

Cosmos 1862 Rocket - Pass Details

Date: 10 December 2019
Orbit: 604 x 634 km, 82.5° (Epoch: 22 January)

Event Time Altitude Azimuth Distance (km) Brightness Sun altitude
Rises 16:48:42 0° 190° (S) 2,865 7.4 -15.3°
Reaches altitude 10° 16:50:54 10° 190° (S) 1,969 6.5 -15.6°
Maximum altitude 16:55:16 89° 283° (WNW) 626 3.5 -16.2°
Drops below altitude 10° 16:59:43 10° 11° (N) 2,004 5.9 -16.9°
Enters shadow 17:00:05 - 11° (NNE) 2,155 6.1 -16.9°
